Retour au catalogue

VICTUS HAZE PUMA

ActifMilitaireSSO
NORAD 69646·PAYLOAD·🇺🇸 United States

Lancé Jun 19, 2026 depuis Rocket Lab Launch Complex 1

Loading…

Prochains Passages (prochaines 24 heures)

TLE

FraisSource: Space-Track

Époque: Sep 14, 2026, 14:47 UTC

1 69646U 26142A   26257.61666224  .00003129  00000-0  14224-3 0  9992
2 69646  97.4521 154.1925 0015142 144.9237 215.3000 15.21397784 13261

Suivez VICTUS HAZE PUMA en temps réel avec AllMySat

Download on the App Store